User: anonymous   Login
Location: Altleiningen
(49.5078°N, 8.0741°E)
Time: 02:45:00
(UTC+00:00)
Language:

Cosmos 1980 Rocket - Orbit

View from above orbital plane
View from above orbital plane
View from above satellite
View from above satellite

Ground track
Ground track

The orbit data is extracted from the following two-line orbital elements,

1 19650U 88102B   21137.31875209 -.00000103  00000-0 -28313-4 0  9996
2 19650  71.0009 247.8524 0013935 175.4761 184.6490 14.15805226678135
Epoch (UTC): 17 May 2021 07:39:00
Eccentricity: 0.0013935
inclination: 71.0009°
perigee height: 829 km
apogee height: 849 km
right ascension of ascending node: 247.8524°
argument of perigee: 175.4761°
revolutions per day: 14.15805226
mean anomaly at epoch: 184.6490°
orbit number at epoch: 67813

The dashed part of the orbit path shows where the satellite is in the earth's shadow,  

DLR